Flag for U.S.A. Weather past 2 weeks in Baltimore, Maryland, U.S.A.

Now
34 °F

Passing clouds.


Feels Like: 28 °F
Forecast: 19 / 36 °F
Wind: 7 mph from West

Location: Baltimore-Washington International Airport

Current Time: Jan 30, 2015 at 6:59:45 AM

Latest Report: Jan 30, 2015 at 5:54 AM


Visibility: 10 mi

Pressure: 29.92 "Hg

Humidity: 76%

Dew point: 27 °F

Location of BaltimoreLocation

Historic Weather in Baltimore — Graph

°F

Baltimore temperature yesterday

Maximum temperature yesterday: 34 °F (at 9:54 PM)
Minimum temperature yesterday: 17 °F (at 3:54 AM)
Average temperature yesterday: 28 °F

Past Weeks' High & Low Weather Summary

 TemperatureHumidityPressure
High49 °F (Jan 25, 12:54 PM)100% (Jan 18, 10:54 AM)30.43 "Hg (Jan 18, 10:54 AM)
Low17 °F (Jan 29, 3:54 AM)26% (Jan 28, 1:54 PM)29.43 "Hg (Jan 24, 1:54 PM)
Average33 °F70%30.01 "Hg
* Reported Jan 15 5:54 AM — Jan 30 5:54 AM, Baltimore, Weather by CustomWeather, © 2014

Note: Actual official high and low records may vary slightly from our data, if they occured in-between our weather recording intervals... More about our weather records

Advertising

Baltimore weather history for previous 24 hours

 ConditionsComfort  
Time TempWeatherWind HumidityBarometerVisibility
5:54 AM
Jan 30
34 °FPassing clouds.7 mph76%29.92 "Hg10 mi
4:54 AM37 °FPassing clouds.10 mph67%29.90 "Hg10 mi
3:54 AM35 °FMostly cloudy.5 mph67%29.90 "Hg10 mi
2:54 AM33 °FOvercast.3 mph75%29.91 "Hg10 mi
1:54 AM33 °FOvercast.No wind75%29.92 "Hg10 mi
12:54 AM33 °FMostly cloudy.No wind75%29.91 "Hg10 mi
11:54 PM
Jan 29
33 °FOvercast.No wind72%29.92 "Hg10 mi
10:54 PM34 °FOvercast.No wind67%29.94 "Hg10 mi
9:54 PM34 °FOvercast.3 mph70%29.97 "Hg10 mi
8:54 PM33 °FOvercast.No wind78%30.00 "Hg10 mi
7:54 PM32 °FOvercast.5 mph85%30.03 "Hg10 mi
6:54 PM31 °FOvercast.3 mph85%30.06 "Hg10 mi
5:54 PM31 °FLight freezing rain. Mostly cloudy.3 mph79%30.09 "Hg6 mi
4:54 PM33 °FSleet. Mostly cloudy.6 mph56%30.10 "Hg6 mi
3:54 PM33 °FMostly cloudy.6 mph52%30.11 "Hg10 mi
2:54 PM33 °FMore clouds than sun.7 mph45%30.14 "Hg10 mi
1:54 PM32 °FMostly cloudy.8 mph43%30.15 "Hg10 mi
12:54 PM32 °FMostly cloudy.7 mph41%30.20 "Hg10 mi
11:54 AM31 °FCloudy.7 mph45%30.25 "Hg10 mi
10:54 AM29 °FCloudy.5 mph47%30.29 "Hg10 mi
9:54 AM28 °FMostly cloudy.6 mph49%30.30 "Hg10 mi
8:54 AM25 °FPartly sunny.3 mph53%30.31 "Hg10 mi
7:54 AM21 °FBroken clouds.No wind68%30.32 "Hg10 mi
6:54 AM18 °FPassing clouds.No wind71%30.34 "Hg10 mi
Weather by CustomWeather, © 2014

See weather overviewHow to use our weather pages